Kars, Turkey

8:33 PM +03 on December 14, 2017 (GMT +0300)
Kars

Weather History for LTCF - July, 2014

Change the Weather History Date:

Wednesday, July 16, 2014

  Actual Average Record
Temperature  
Mean Temperature 69 °F -  
Max Temperature 84 °F 78 °F - ()
Min Temperature 54 °F 49 °F - ()
Cooling Degree Days 4    
Growing Degree Days 19 (Base 50)    
Moisture  
Dew Point 50 °F    
Average Humidity 49    
Maximum Humidity 82    
Minimum Humidity 17    
Precipitation  
Precipitation 0.00 in 0.06 in - ()
Sea Level Pressure  
Sea Level Pressure 30.10 in    
Wind  
Wind Speed 5 mph ()    
Max Wind Speed 15 mph    
Max Gust Speed -    
Visibility 6.1 miles    
Events      
T = Trace of Precipitation, MM = Missing Value Source: Averaged Metar Reports

Daily Weather History Graph

Daily Weather History Graph

Search for Another Location

Airport or City:

Trip Planner

Search our weather history database for the weather conditions in past years. The results will help you decide how hot, cold, wet, or windy it might be!

Date:

Astronomy

Jul. 16, 2014 Rise Set
Actual Time 4:50 AM EEST 7:36 PM EEST
Civil Twilight 4:17 AM EEST 8:08 PM EEST
Nautical Twilight 3:37 AM EEST 8:48 PM EEST
Astronomical Twilight 2:51 AM EEST 9:34 PM EEST
Moon 10:05 PM EEST (7/16) 9:30 AM EEST (7/16)
Length of Visible Light 15h 50m
Length of Day
14h 46m
Waning Gibbous, 79% of the Moon is Illuminated
Jul 16
Waning Gibbous
Jul 19
Last Quarter
Jul 27
New
Aug 4
First Quarter
Aug 10
Full

Hourly Weather History & Observations

Time (EEST) Temp. Heat Index Dew Point Humidity Pressure Visibility Wind Dir Wind Speed Gust Speed Precip Events Conditions
12:00 AM 60 °F - 46 °F 50%  in 6 mi NE 9.2 mph - -  
12:50 AM 57.2 °F - 48.2 °F 72% 30.15 in - NE 6.9 mph - N/A   Clear
1:50 AM 55.4 °F - 50.0 °F 82% 30.15 in - NNE 4.6 mph - N/A   Clear
3:00 AM 56 °F - 50 °F 74%  in 6 mi ENE 3.5 mph - -  
3:50 AM 57.2 °F - 48.2 °F 72% 30.15 in - NE 5.8 mph - N/A   Clear
4:50 AM 57.2 °F - 48.2 °F 72% 30.15 in - ENE 5.8 mph - N/A   Clear
5:50 AM 57.2 °F - 46.4 °F 67% 30.15 in - Calm Calm - N/A   Clear
6:00 AM 57 °F - 47 °F 60%  in 6 mi Calm Calm - -  
6:50 AM 62.6 °F - 50.0 °F 63% 30.15 in - Calm Calm - N/A   Clear
8:50 AM 69.8 °F - 50.0 °F 49% 30.15 in - Calm Calm - N/A   Clear
9:00 AM 70 °F - 50 °F 38%  in 6 mi Calm Calm - -  
9:50 AM 71.6 °F - 48.2 °F 43% 30.15 in - Calm Calm - N/A   Clear
10:50 AM 73.4 °F - 50.0 °F 44% 30.12 in - Calm Calm - N/A   Clear
11:50 AM 77.0 °F - 50.0 °F 39% 30.12 in 6.2 mi Variable 2.3 mph - N/A   Partly Cloudy
12:00 PM 77 °F - 51 °F 29%  in 6 mi 2.3 mph - -   Scattered Clouds
12:50 PM 78.8 °F - 55.4 °F 44% 30.09 in 6.2 mi North 6.9 mph - N/A   Partly Cloudy
1:50 PM 80.6 °F 80.3 °F 53.6 °F 39% 30.06 in 6.2 mi North 6.9 mph - N/A   Partly Cloudy
2:50 PM 84.2 °F 82.8 °F 53.6 °F 35% 30.06 in 6.2 mi ESE 8.1 mph - N/A   Scattered Clouds
3:00 PM 84 °F - 53 °F 24%  in 6 mi ESE 8.1 mph - -   Partly Cloudy
3:50 PM 80.6 °F - 48.2 °F 32% 30.04 in 6.2 mi ENE 2.3 mph - N/A   Scattered Clouds
4:50 PM 84.2 °F - 48.2 °F 29% 30.04 in 6.2 mi South 4.6 mph - N/A   Partly Cloudy
5:50 PM 82.4 °F - 46.4 °F 28% 30.04 in 6.2 mi East 11.5 mph - N/A   Partly Cloudy
6:00 PM 82 °F - 45 °F 17%  in 6 mi East 11.5 mph - -   Scattered Clouds
6:50 PM 77.0 °F - 53.6 °F 44% 30.06 in - East 15.0 mph - N/A   Clear
7:50 PM 71.6 °F - 53.6 °F 53% 30.06 in - East 15.0 mph - N/A   Clear
8:50 PM 68.0 °F - 51.8 °F 56% 30.09 in - NNE 10.4 mph - N/A   Clear
9:00 PM 68 °F - 51 °F 43%  in 6 mi NNE 10.4 mph - -  
9:50 PM 66.2 °F - 50.0 °F 56% 30.09 in - NE 15.0 mph - N/A   Clear
10:50 PM 64.4 °F - 50.0 °F 59% 30.09 in - NE 12.7 mph - N/A   Clear
11:50 PM 62.6 °F - 48.2 °F 59% 30.09 in - NE 10.4 mph - N/A   Clear